Weather History for Bedford, MA

Change the Weather History Date:

Saturday, October 19, 2013

  Actual Average Record
Temperature  
Mean Temperature 51 °F -  
Max Temperature 66 °F 59 °F 82 °F (1963)
Min Temperature 36 °F 38 °F 20 °F (1974)
Degree Days  
Heating Degree Days 14    
Growing Degree Days 1 (Base 50)    
Moisture  
Dew Point 40 °F    
Average Humidity 66    
Maximum Humidity 93    
Minimum Humidity 37    
Precipitation  
Precipitation 0.00 in - - ()
Sea Level Pressure  
Sea Level Pressure 29.92 in    
Wind  
Wind Speed 5 mph (SSW)    
Max Wind Speed 12 mph    
Max Gust Speed -    
Visibility 10 miles    
Events      
Averages and records for this station are not official NWS values.
T = Trace of Precipitation, MM = Missing Value Source: NWS Daily Summary

Daily Weather History Graph

Daily Weather History Graph

Search for Another Location

Airport:

Trip Planner

Search our weather history database for the weather conditions in past years. The results will help you decide how hot, cold, wet, or windy it might be!

Date:

Astronomy

Oct. 19, 2013 Rise Set
Actual Time 7:03 AM EDT 5:56 PM EDT
Civil Twilight 6:34 AM EDT 6:24 PM EDT
Nautical Twilight 6:01 AM EDT 6:57 PM EDT
Astronomical Twilight 5:29 AM EDT 7:30 PM EDT
Moon 6:20 PM EDT (10/19) 7:38 AM EDT (10/19)
Length of Visible Light 11h 50m
Length of Day
10h 53m
Waxing Gibbous, 99% of the Moon is Illuminated
Oct 19
Waxing Gibbous
Oct 26
Last Quarter
Nov 3
New
Nov 10
First Quarter
Nov 17
Full

Hourly Weather History & Observations

Time (EDT) Temp. Windchill Dew Point Humidity Pressure Visibility Wind Dir Wind Speed Gust Speed Precip Events Conditions
12:56 AM 41.0 °F 39.0 °F 39.0 °F 93% 29.96 in 10.0 mi WSW 3.5 mph - N/A   Clear
1:56 AM 43.0 °F 39.5 °F 37.9 °F 82% 29.97 in 10.0 mi WSW 5.8 mph - N/A   Clear
2:56 AM 41.0 °F 38.0 °F 37.0 °F 86% 29.97 in 10.0 mi WSW 4.6 mph - N/A   Clear
3:56 AM 39.0 °F - 36.0 °F 89% 29.98 in 10.0 mi Calm Calm - N/A   Clear
4:56 AM 42.1 °F 37.1 °F 37.9 °F 85% 29.98 in 10.0 mi WSW 8.1 mph - N/A   Clear
5:56 AM 41.0 °F 38.0 °F 37.9 °F 89% 30.00 in 10.0 mi WSW 4.6 mph - N/A   Clear
6:56 AM 36.0 °F - 34.0 °F 93% 30.00 in 10.0 mi Calm Calm - N/A   Clear
7:56 AM 39.0 °F - 37.0 °F 93% 29.99 in 10.0 mi Calm Calm - N/A   Clear
8:56 AM 48.0 °F - 42.1 °F 80% 30.00 in 10.0 mi SW 3.5 mph - N/A   Clear
9:56 AM 55.9 °F - 43.0 °F 62% 30.00 in 10.0 mi WSW 3.5 mph - N/A   Clear
10:56 AM 62.1 °F - 41.0 °F 46% 29.99 in 10.0 mi WSW 8.1 mph - N/A   Clear
11:56 AM 63.0 °F - 41.0 °F 45% 29.97 in 10.0 mi South 6.9 mph - N/A   Clear
12:56 PM 66.0 °F - 39.9 °F 38% 29.94 in 10.0 mi SW 8.1 mph - N/A   Clear
1:56 PM 64.9 °F - 39.9 °F 40% 29.92 in 10.0 mi South 10.4 mph - N/A   Clear
2:56 PM 66.0 °F - 39.0 °F 37% 29.91 in 10.0 mi SW 5.8 mph - N/A   Clear
3:56 PM 63.0 °F - 39.0 °F 41% 29.89 in 10.0 mi SSW 11.5 mph - N/A   Clear
4:56 PM 61.0 °F - 39.9 °F 46% 29.89 in 10.0 mi South 8.1 mph - N/A   Clear
5:56 PM 59.0 °F - 42.1 °F 53% 29.88 in 10.0 mi South 6.9 mph - N/A   Clear
6:56 PM 57.9 °F - 44.1 °F 60% 29.86 in 10.0 mi SSE 6.9 mph - N/A   Partly Cloudy
7:56 PM 57.9 °F - 44.1 °F 60% 29.85 in 10.0 mi South 9.2 mph - N/A   Overcast
8:56 PM 57.0 °F - 44.1 °F 62% 29.83 in 10.0 mi SSE 8.1 mph - N/A   Overcast
9:56 PM 55.9 °F - 46.0 °F 69% 29.81 in 10.0 mi SSE 10.4 mph - N/A   Scattered Clouds
10:56 PM 55.9 °F - 44.1 °F 64% 29.81 in 10.0 mi South 6.9 mph - N/A   Overcast
11:56 PM 55.0 °F - 44.1 °F 67% 29.78 in 10.0 mi South 6.9 mph - N/A   Overcast